Weather in Novka

Belarus     55°08′02″N   30°09′08″E
temp.,
°C
wind,
m/s
gust,
m/s
humid.,
%
clouds,
%
prec.,
mm/h
press.,
hPa
HPBL,
m
23 october, sat
sat2300:00+6sw91569100 0.0 1001987
03:00+5sw91483100 0.0 10011037
06:00+6w10176957 0.1 10001260
09:00+5wsw7138146 0.1 1003798
12:00+7wsw8117162 0.2 10051168
15:00+5w71286100 1.7 10071014
18:00+6wsw81374100 0.6 10081019
21:00+5wnw71292100 1.2 10101044
24 october, sun
sun2400:00+3wnw6108599 0.4 1013760
03:00+3nw61081100 0.4 10151061
06:00+2nw61088100 0.0 1018779
09:00+2nw61081100 0.1 1020913
12:00+2nw687487 0.0 10231188
15:00+2nw5868100 0.0 10251210
18:00+2nw5968100 0.0 1027905
21:00+1nw377552 0.0 1028266
25 october, mon
mon2500:00−1nw23875 0.0 103049
03:00−1w2286100 0.0 103029
06:00−2sw338473 0.0 103162
09:00−1ssw387615 0.0 1030210
12:00+5sw58666 0.0 1030539
15:00+7sw69605 0.0 1028805
18:00+3ssw411765 0.0 1027228
21:00+2ssw513826 0.0 1027282
26 october, tue
tue2600:00+1ssw5138543 0.0 1027291
03:00+1ssw5138379 0.0 1026286
06:00+1ssw6148096 0.0 1024312
09:00+2ssw61474100 0.0 1023370
12:00+6sw71256100 0.0 1022561
15:00+8sw6115412 0.0 1020697
18:00+5ssw511666 0.0 1020263
21:00+4sw5117499 0.0 1020244
27 october, wed
wed2700:00+3sw41079100 0.0 1019210
03:00+2sw4985100 0.0 1018186
06:00+4sw41080100 0.0 1017279
09:00+4sw4896100 2.2 1017251
12:00+6wsw4994100 0.4 1017384
15:00+9w6877100 0.4 1016949
18:00+7w5108565 0.1 1017430
21:00+5w38954 0.2 1019199